Henderson, KY

5:04 AM CDT on July 20, 2019 (GMT -0500)
Henderson City-County

Weather History for KEHR - May, 2019

Change the Weather History Date:

Thursday, May 16, 2019

  Actual Average Record
Temperature  
Mean Temperature 68 °F -  
Max Temperature 84 °F 77 °F 91 °F (1962)
Min Temperature 52 °F 55 °F 33 °F (2014)
Cooling Degree Days 3    
Growing Degree Days 18 (Base 50)    
Moisture  
Dew Point 59 °F    
Average Humidity 84    
Maximum Humidity 100    
Minimum Humidity 56    
Precipitation  
Precipitation 0.00 in - - ()
Sea Level Pressure  
Sea Level Pressure 29.95 in    
Wind  
Wind Speed 3 mph (SSW)    
Max Wind Speed 17 mph    
Max Gust Speed 21 mph    
Visibility 6 miles    
Events Fog    
Averages and records for this station are not official NWS values.
T = Trace of Precipitation, MM = Missing Value Source: NWS Daily Summary

Daily Weather History Graph

Daily Weather History Graph

Search for Another Location

Airport or City:

Astronomy

May. 16, 2019 Rise Set
Actual Time 5:40 AM CDT 7:54 PM CDT
Civil Twilight 5:10 AM CDT 8:24 PM CDT
Nautical Twilight 4:34 AM CDT 9:00 PM CDT
Astronomical Twilight 3:55 AM CDT 9:40 PM CDT
Moon 5:37 PM CDT (5/16) 4:33 AM CDT (5/16)
Length of Visible Light 15h 13m
Length of Day
14h 14m
Waxing Gibbous, 94% of the Moon is Illuminated
May 16
Waxing Gibbous
May 18
Full
May 26
Last Quarter
Jun 3
New
Jun 10
First Quarter

Hourly Weather History & Observations

Time (CDT) Temp. Heat Index Dew Point Humidity Pressure Visibility Wind Dir Wind Speed Gust Speed Precip Events Conditions
12:56 AM 59.0 °F - 57.0 °F 93% 30.02 in 10.0 mi Calm Calm - N/A   Clear
1:56 AM 57.0 °F - 55.9 °F 96% 30.01 in 7.0 mi Calm Calm - N/A   Clear
2:30 AM 55.4 °F - 55.4 °F 100% 29.98 in 1.8 mi South 3.5 mph - N/A   Clear
2:38 AM 55.4 °F - 53.6 °F 94% 29.98 in 1.0 mi South 3.5 mph - N/A   Clear
2:42 AM 55.4 °F - 55.4 °F 100% 29.98 in 3.0 mi South 3.5 mph - N/A   Clear
2:56 AM 55.9 °F - 55.9 °F 100% 30.01 in 5.0 mi Calm Calm - N/A   Clear
3:30 AM 55.4 °F - 55.4 °F 100% 29.99 in 1.5 mi Calm Calm - N/A   Clear
3:45 AM 55.4 °F - 53.6 °F 94% 29.99 in 2.5 mi Calm Calm - N/A   Clear
3:56 AM 55.0 °F - 54.0 °F 96% 30.01 in 1.0 mi Calm Calm - N/A   Clear
4:03 AM 53.6 °F - 53.6 °F 100% 29.98 in 0.5 mi Calm Calm - N/A Fog Fog
4:15 AM 53.6 °F - 53.6 °F 100% 29.99 in 1.0 mi Calm Calm - N/A   Clear
4:52 AM 53.6 °F - 53.6 °F 100% 29.99 in 0.5 mi Calm Calm - N/A Fog Fog
4:56 AM 53.1 °F - 53.1 °F 100% 30.02 in 0.5 mi Calm Calm - N/A Fog Fog
5:39 AM 53.6 °F - 53.6 °F 100% 29.99 in 0.2 mi Calm Calm - N/A Fog Fog
5:56 AM 52.0 °F - 52.0 °F 100% 30.03 in 0.2 mi Calm Calm - N/A Fog Fog
6:20 AM 53.6 °F - 53.6 °F 100% 30.00 in 0.5 mi Calm Calm - N/A Fog Fog
6:25 AM 53.6 °F - 53.6 °F 100% 30.01 in 1.0 mi Calm Calm - N/A   Clear
6:35 AM 53.6 °F - 53.6 °F 100% 30.01 in 1.5 mi Calm Calm - N/A   Clear
6:44 AM 55.4 °F - 55.4 °F 100% 30.01 in 2.0 mi Calm Calm - N/A   Clear
6:56 AM 57.0 °F - 55.9 °F 96% 30.05 in 2.5 mi Calm Calm - N/A   Clear
7:56 AM 62.1 °F - 60.1 °F 93% 30.03 in 10.0 mi South 6.9 mph - N/A   Clear
8:56 AM 68.0 °F - 62.1 °F 81% 29.99 in 10.0 mi South 6.9 mph - N/A   Clear
9:56 AM 71.1 °F - 62.1 °F 73% 29.99 in 10.0 mi SSE 8.1 mph - N/A   Clear
10:56 AM 73.9 °F - 62.1 °F 66% 29.97 in 10.0 mi SSW 10.4 mph - N/A   Clear
11:56 AM 78.1 °F - 64.0 °F 62% 29.97 in 10.0 mi SSW 10.4 mph - N/A   Clear
12:56 PM 79.0 °F - 64.9 °F 62% 29.95 in 10.0 mi SSW 10.4 mph - N/A   Clear
1:56 PM 81.0 °F 83.0 °F 66.0 °F 60% 29.93 in 10.0 mi South 9.2 mph 17.3 mph N/A   Clear
2:56 PM 84.0 °F 86.5 °F 66.9 °F 56% 29.88 in 10.0 mi SW 16.1 mph - N/A   Clear
3:56 PM 84.9 °F 88.2 °F 68.0 °F 57% 29.87 in 10.0 mi SSW 13.8 mph - N/A   Clear
4:56 PM 84.9 °F 88.2 °F 68.0 °F 57% 29.85 in 10.0 mi SW 17.3 mph 20.7 mph N/A   Clear
5:56 PM 84.0 °F 87.0 °F 68.0 °F 58% 29.85 in 10.0 mi SSW 13.8 mph - N/A   Clear
6:56 PM 82.9 °F 85.4 °F 66.9 °F 58% 29.85 in 10.0 mi SW 11.5 mph - N/A   Clear
7:56 PM 79.0 °F - 66.9 °F 66% 29.84 in 10.0 mi SW 9.2 mph - N/A   Clear
8:56 PM 77.0 °F - 66.9 °F 71% 29.84 in 10.0 mi SSW 10.4 mph - N/A   Clear
9:56 PM 75.9 °F - 66.0 °F 71% 29.84 in 10.0 mi SSW 11.5 mph - N/A   Clear
10:56 PM 73.9 °F - 66.0 °F 76% 29.82 in 10.0 mi SSW 10.4 mph - N/A   Clear
11:56 PM 73.0 °F - 66.0 °F 79% 29.80 in 10.0 mi SSW 10.4 mph - N/A   Clear